Weather History for DeKalb, IL

Change the Weather History Date:

Sunday, April 6, 2014

  Actual Average (KARR) Record (KARR)
Temperature  
Mean Temperature 39 °F 45 °F  
Max Temperature 53 °F 56 °F 76 °F (2010)
Min Temperature 26 °F 34 °F 21 °F (2002)
Degree Days  
Heating Degree Days 26 20  
Month to date heating degree days 125  
Since 1 July heating degree days 6133  
Cooling Degree Days 0 0  
Month to date cooling degree days 0  
Year to date cooling degree days 0  
Moisture  
Dew Point 29 °F    
Average Humidity 65    
Maximum Humidity 88    
Minimum Humidity 43    
Precipitation  
Precipitation 0.00 in 0.11 in 0.46 in (2001)
Month to date precipitation 0.60  
Year to date precipitation 5.92  
Sea Level Pressure  
Sea Level Pressure 30.06 in    
Wind  
Wind Speed 8 mph (SSE)    
Max Wind Speed 15 mph    
Max Gust Speed 20 mph    
Visibility 10 miles    
Events      
T = Trace of Precipitation, MM = Missing Value Source: NWS Daily Summary

Daily Weather History Graph

Daily Weather History Graph

Search for Another Location

Airport:

Trip Planner

Search our weather history database for the weather conditions in past years. The results will help you decide how hot, cold, wet, or windy it might be!

Date:

Astronomy

Apr. 06, 2014 Rise Set
Actual Time 6:29 AM CDT 7:25 PM CDT
Civil Twilight 6:00 AM CDT 7:54 PM CDT
Nautical Twilight 5:27 AM CDT 8:28 PM CDT
Astronomical Twilight 4:51 AM CDT 9:03 PM CDT
Moon 11:26 AM CDT (4/6) 1:24 AM CDT (4/6)
Length of Visible Light 13h 53m
Length of Day
12h 56m
Waxing Crescent, 44% of the Moon is Illuminated
Apr 6
Waxing Crescent
Apr 7
First Quarter
Apr 15
Full
Apr 22
Last Quarter
Apr 29
New

Hourly Weather History & Observations

Time (CDT) Temp. Windchill Dew Point Humidity Pressure Visibility Wind Dir Wind Speed Gust Speed Precip Events Conditions
12:15 AM 33.1 °F 27.7 °F 24.8 °F 72% 30.15 in 10.0 mi SSE 5.8 mph - N/A   Clear
12:35 AM 32.9 °F 26.7 °F 24.4 °F 71% 30.15 in 10.0 mi South 6.9 mph - N/A   Clear
12:55 AM 32.9 °F 26.7 °F 25.3 °F 74% 30.14 in 10.0 mi South 6.9 mph - N/A   Clear
1:15 AM 33.1 °F 26.9 °F 25.0 °F 72% 30.14 in 10.0 mi South 6.9 mph - N/A   Clear
1:35 AM 32.2 °F 25.8 °F 24.6 °F 74% 30.14 in 10.0 mi South 6.9 mph - N/A   Clear
1:55 AM 31.1 °F 23.7 °F 24.3 °F 76% 30.14 in 10.0 mi SSE 8.1 mph - N/A   Clear
2:15 AM 31.5 °F 24.9 °F 24.4 °F 75% 30.14 in 10.0 mi SSE 6.9 mph - N/A   Clear
2:35 AM 31.1 °F 24.5 °F 24.4 °F 76% 30.13 in 10.0 mi SSE 6.9 mph - N/A   Clear
2:55 AM 30.4 °F 22.9 °F 24.6 °F 79% 30.13 in 10.0 mi SSE 8.1 mph - N/A   Clear
3:15 AM 31.6 °F 24.4 °F 24.8 °F 76% 30.13 in 10.0 mi SSE 8.1 mph - N/A   Clear
3:35 AM 29.5 °F 22.5 °F 24.3 °F 81% 30.13 in 10.0 mi SSE 6.9 mph - N/A   Clear
3:55 AM 30.2 °F 23.4 °F 24.4 °F 79% 30.12 in 10.0 mi SSE 6.9 mph - N/A   Clear
4:15 AM 28.6 °F 21.5 °F 23.9 °F 83% 30.12 in 10.0 mi SSE 6.9 mph - N/A   Clear
4:35 AM 27.1 °F 19.7 °F 23.4 °F 86% 30.13 in 10.0 mi SSE 6.9 mph - N/A   Clear
4:55 AM 28.0 °F 20.8 °F 23.9 °F 84% 30.13 in 10.0 mi SSE 6.9 mph - N/A   Clear
5:15 AM 27.9 °F 19.8 °F 23.7 °F 84% 30.12 in 10.0 mi South 8.1 mph - N/A   Clear
5:35 AM 28.6 °F 19.9 °F 24.1 °F 83% 30.12 in 10.0 mi South 9.2 mph - N/A   Clear
5:55 AM 27.3 °F 19.1 °F 23.5 °F 86% 30.13 in 10.0 mi South 8.1 mph - N/A   Clear
6:15 AM 27.1 °F 19.7 °F 23.4 °F 86% 30.14 in 10.0 mi South 6.9 mph - N/A   Clear
6:35 AM 26.4 °F 18.0 °F 23.0 °F 87% 30.14 in 10.0 mi South 8.1 mph - N/A   Clear
6:55 AM 26.8 °F 19.3 °F 23.7 °F 88% 30.14 in 7.0 mi South 6.9 mph - N/A   Clear
7:15 AM 28.0 °F 20.8 °F 24.6 °F 87% 30.15 in 7.0 mi South 6.9 mph - N/A   Clear
7:35 AM 31.5 °F 25.8 °F 27.5 °F 85% 30.15 in 10.0 mi South 5.8 mph - N/A   Clear
7:55 AM 32.9 °F 27.5 °F 29.3 °F 87% 30.15 in 10.0 mi South 5.8 mph - N/A   Clear
8:15 AM 34.9 °F 28.3 °F 29.8 °F 82% 30.14 in 10.0 mi South 8.1 mph - N/A   Clear
8:35 AM 36.5 °F 29.7 °F 30.9 °F 80% 30.14 in 10.0 mi South 9.2 mph - N/A   Clear
8:55 AM 38.3 °F 31.4 °F 31.3 °F 76% 30.14 in 10.0 mi South 10.4 mph - N/A   Clear
9:15 AM 40.1 °F 33.6 °F 32.2 °F 73% 30.14 in 10.0 mi South 10.4 mph - N/A   Clear
9:35 AM 41.7 °F 35.6 °F 32.0 °F 68% 30.14 in 10.0 mi South 10.4 mph - N/A   Clear
9:55 AM 43.5 °F 37.5 °F 32.2 °F 64% 30.13 in 10.0 mi South 11.5 mph - N/A   Clear
10:15 AM 45.5 °F 39.6 °F 32.2 °F 60% 30.13 in 10.0 mi South 12.7 mph - N/A   Clear
10:35 AM 46.4 °F 41.1 °F 32.0 °F 57% 30.12 in 10.0 mi South 11.5 mph 16.1 mph N/A   Clear
10:55 AM 47.7 °F - 32.2 °F 55% 30.12 in 10.0 mi South 10.4 mph - N/A   Clear
11:15 AM 47.3 °F - 31.8 °F 55% 30.12 in 10.0 mi South 13.8 mph - N/A   Clear
11:35 AM 48.0 °F - 32.0 °F 54% 30.11 in 10.0 mi South 12.7 mph - N/A   Clear
11:55 AM 48.4 °F - 31.6 °F 52% 30.11 in 10.0 mi South 12.7 mph - N/A   Clear
12:15 PM 48.0 °F - 31.1 °F 52% 30.09 in 10.0 mi South 15.0 mph 19.6 mph N/A   Clear
12:35 PM 48.0 °F - 29.5 °F 49% 30.09 in 10.0 mi South 12.7 mph - N/A   Clear
12:55 PM 48.9 °F - 30.9 °F 50% 30.07 in 10.0 mi South 10.4 mph - N/A   Clear
1:15 PM 49.3 °F - 31.5 °F 50% 30.06 in 10.0 mi South 8.1 mph - N/A   Clear
1:35 PM 49.6 °F - 32.0 °F 51% 30.05 in 10.0 mi South 9.2 mph - N/A   Clear
1:55 PM 49.8 °F - 32.4 °F 51% 30.04 in 10.0 mi South 5.8 mph - N/A   Clear
2:15 PM 51.3 °F - 32.0 °F 48% 30.02 in 10.0 mi SE 8.1 mph - N/A   Clear
2:35 PM 51.6 °F - 31.6 °F 46% 30.01 in 10.0 mi SE 10.4 mph - N/A   Clear
2:55 PM 52.7 °F - 31.1 °F 44% 29.99 in 10.0 mi South 10.4 mph - N/A   Clear
3:15 PM 52.9 °F - 31.1 °F 43% 29.99 in 10.0 mi SSE 9.2 mph 17.3 mph N/A   Clear
3:35 PM 52.9 °F - 32.0 °F 45% 29.99 in 10.0 mi South 13.8 mph 17.3 mph N/A   Clear
3:55 PM 52.0 °F - 31.6 °F 46% 29.99 in 10.0 mi South 12.7 mph - N/A   Clear
4:15 PM 52.0 °F - 31.1 °F 45% 29.98 in 10.0 mi South 11.5 mph - N/A   Scattered Clouds
4:35 PM 52.0 °F - 31.8 °F 46% 29.98 in 10.0 mi SSE 12.7 mph - N/A   Mostly Cloudy
4:55 PM 52.0 °F - 30.9 °F 45% 29.98 in 10.0 mi South 11.5 mph - N/A   Mostly Cloudy
5:15 PM 51.3 °F - 30.9 °F 46% 29.99 in 10.0 mi SSE 12.7 mph - N/A   Mostly Cloudy
5:35 PM 51.8 °F - 32.2 °F 47% 29.98 in 10.0 mi South 9.2 mph - N/A   Mostly Cloudy
5:55 PM 51.8 °F - 32.2 °F 47% 29.98 in 10.0 mi South 9.2 mph - N/A   Scattered Clouds
6:15 PM 51.1 °F - 32.0 °F 48% 29.98 in 10.0 mi SSE 12.7 mph - N/A   Scattered Clouds
6:35 PM 50.2 °F - 32.0 °F 50% 29.97 in 10.0 mi SSE 4.6 mph - N/A   Overcast
6:55 PM 50.0 °F - 31.1 °F 48% 29.96 in 10.0 mi SE 4.6 mph - N/A   Overcast
7:15 PM 47.5 °F - 30.7 °F 52% 29.95 in 10.0 mi SE 4.6 mph - N/A   Scattered Clouds
7:35 PM 46.0 °F 43.1 °F 30.9 °F 56% 29.96 in 10.0 mi SSE 5.8 mph - N/A   Mostly Cloudy
7:55 PM 44.2 °F 41.0 °F 32.4 °F 63% 29.97 in 10.0 mi South 5.8 mph - N/A   Overcast
8:15 PM 45.3 °F 43.0 °F 32.7 °F 61% 29.98 in 10.0 mi SSW 4.6 mph - N/A   Mostly Cloudy
8:35 PM 45.9 °F 44.6 °F 33.1 °F 61% 29.98 in 10.0 mi SW 3.5 mph - N/A   Mostly Cloudy
8:55 PM 46.0 °F - 32.9 °F 60% 29.97 in 10.0 mi Calm Calm - N/A   Overcast
9:15 PM 46.6 °F - 32.5 °F 58% 29.98 in 10.0 mi Calm Calm - N/A   Mostly Cloudy
9:35 PM 45.3 °F - 32.4 °F 61% 29.98 in 10.0 mi Calm Calm - N/A   Overcast
9:55 PM 45.3 °F - 32.2 °F 60% 29.97 in 10.0 mi Calm Calm - N/A   Mostly Cloudy
10:20 PM 45.1 °F - 32.0 °F 60% 29.97 in 10.0 mi Calm Calm - N/A   Scattered Clouds
10:35 PM 41.2 °F 38.2 °F 32.0 °F 70% 29.96 in 10.0 mi SE 4.6 mph - N/A   Scattered Clouds
10:55 PM 40.5 °F 36.5 °F 31.8 °F 71% 29.96 in 10.0 mi SE 5.8 mph - N/A   Clear
11:15 PM 40.8 °F 37.8 °F 31.8 °F 70% 29.96 in 10.0 mi SE 4.6 mph - N/A   Clear
11:35 PM 39.4 °F 35.2 °F 31.5 °F 73% 29.95 in 10.0 mi SE 5.8 mph - N/A   Clear
11:55 PM 39.2 °F 35.9 °F 30.2 °F 70% 29.95 in 10.0 mi SE 4.6 mph - N/A   Clear